Weather History for Drummond Island, MI

Change the Weather History Date:

Friday, November 2, 2012

  Actual Average (KCIU) Record (KCIU)
Temperature  
Mean Temperature 34 °F -  
Max Temperature 38 °F 46 °F 65 °F (1978)
Min Temperature 31 °F 31 °F 17 °F (1984)
Degree Days  
Heating Degree Days 30    
Moisture  
Dew Point 26 °F    
Average Humidity 71    
Maximum Humidity 80    
Minimum Humidity 62    
Precipitation  
Precipitation 0.00 in - - ()
Sea Level Pressure  
Sea Level Pressure 29.92 in    
Wind  
Wind Speed 9 mph (NNW)    
Max Wind Speed 14 mph    
Max Gust Speed 21 mph    
Visibility 10 miles    
Events      
Averages and records for this station are not official NWS values.
T = Trace of Precipitation, MM = Missing Value Source: NWS Daily Summary

Daily Weather History Graph

Daily Weather History Graph

Search for Another Location

Airport:

Trip Planner

Search our weather history database for the weather conditions in past years. The results will help you decide how hot, cold, wet, or windy it might be!

Date:

Astronomy

Nov. 02, 2012 Rise Set
Actual Time 8:17 AM EDT 6:18 PM EDT
Civil Twilight 7:46 AM EDT 6:50 PM EDT
Nautical Twilight 7:10 AM EDT 7:25 PM EDT
Astronomical Twilight 6:36 AM EDT 8:00 PM EDT
Moon 8:58 PM EDT (11/2) 11:44 AM EDT (11/2)
Length of Visible Light 11h 03m
Length of Day
10h 01m
Waning Gibbous, 87% of the Moon is Illuminated
Nov 2
Waning Gibbous
Nov 6
Last Quarter
Nov 13
New
Nov 20
First Quarter
Nov 28
Full

Hourly Weather History & Observations

Time (EDT) Temp. Windchill Dew Point Humidity Pressure Visibility Wind Dir Wind Speed Gust Speed Precip Events Conditions
12:15 AM 32.4 °F 25.3 °F 26.1 °F 78% 29.75 in 10.0 mi NNW 8.1 mph 18.4 mph N/A   Overcast
12:36 AM 32.0 °F 25.6 °F 26.6 °F 80% 29.76 in 10.0 mi NNW 6.9 mph 16.1 mph N/A   Overcast
12:56 AM 32.0 °F 25.6 °F 26.2 °F 79% 29.76 in 10.0 mi NNW 6.9 mph - N/A   Overcast
1:15 AM 32.2 °F 25.8 °F 25.9 °F 78% 29.76 in 10.0 mi NNW 6.9 mph - N/A   Overcast
1:36 AM 32.2 °F 24.4 °F 26.1 °F 78% 29.77 in 10.0 mi NNW 9.2 mph 17.3 mph N/A   Overcast
1:55 AM 32.2 °F 25.8 °F 25.7 °F 77% 29.77 in 10.0 mi NNW 6.9 mph 17.3 mph N/A   Overcast
2:16 AM 32.2 °F 23.8 °F 25.2 °F 75% 29.77 in 10.0 mi NNW 10.4 mph 19.6 mph N/A   Overcast
2:36 AM 32.0 °F 24.8 °F 25.0 °F 75% 29.78 in 10.0 mi NNW 8.1 mph - N/A   Overcast
2:55 AM 32.0 °F 24.8 °F 25.3 °F 76% 29.78 in 10.0 mi NNW 8.1 mph 19.6 mph N/A   Overcast
3:16 AM 32.0 °F 23.6 °F 25.5 °F 77% 29.79 in 10.0 mi NNW 10.4 mph 18.4 mph N/A   Overcast
3:36 AM 32.0 °F 24.2 °F 25.3 °F 76% 29.79 in 10.0 mi NNW 9.2 mph 19.6 mph N/A   Overcast
3:55 AM 32.0 °F 23.6 °F 24.4 °F 74% 29.80 in 10.0 mi NNW 10.4 mph 17.3 mph N/A   Overcast
4:16 AM 31.8 °F 23.3 °F 24.8 °F 75% 29.80 in 10.0 mi NNW 10.4 mph - N/A   Overcast
4:35 AM 31.6 °F 23.7 °F 24.3 °F 74% 29.80 in 10.0 mi NNW 9.2 mph 19.6 mph N/A   Mostly Cloudy
4:56 AM 31.8 °F 23.9 °F 24.8 °F 75% 29.80 in 10.0 mi NNW 9.2 mph - N/A   Overcast
5:16 AM 31.6 °F 26.0 °F 24.8 °F 76% 29.81 in 10.0 mi NNW 5.8 mph - N/A   Overcast
5:35 AM 32.0 °F 22.5 °F 24.6 °F 74% 29.81 in 10.0 mi NNW 12.7 mph 16.1 mph N/A   Overcast
5:56 AM 31.8 °F 22.3 °F 24.4 °F 74% 29.82 in 10.0 mi NNW 12.7 mph 17.3 mph N/A   Overcast
6:16 AM 31.8 °F 23.9 °F 24.6 °F 75% 29.83 in 10.0 mi NNW 9.2 mph - N/A   Mostly Cloudy
6:35 AM 31.8 °F 24.6 °F 24.4 °F 74% 29.83 in 10.0 mi NNW 8.1 mph 18.4 mph N/A   Scattered Clouds
6:56 AM 31.8 °F 24.6 °F 24.1 °F 73% 29.84 in 10.0 mi NNW 8.1 mph 18.4 mph N/A   Mostly Cloudy
7:16 AM 32.0 °F 24.8 °F 23.9 °F 72% 29.84 in 10.0 mi NNW 8.1 mph 17.3 mph N/A   Mostly Cloudy
7:36 AM 32.0 °F 24.2 °F 23.9 °F 72% 29.85 in 10.0 mi NNW 9.2 mph 16.1 mph N/A   Overcast
7:56 AM 32.0 °F 23.0 °F 24.1 °F 73% 29.86 in 10.0 mi NNW 11.5 mph 17.3 mph N/A   Overcast
8:15 AM 32.0 °F 25.6 °F 24.1 °F 73% 29.87 in 10.0 mi NNW 6.9 mph 18.4 mph N/A   Overcast
8:36 AM 32.0 °F 24.2 °F 23.9 °F 72% 29.87 in 10.0 mi NW 9.2 mph 19.6 mph N/A   Overcast
8:56 AM 32.0 °F 23.0 °F 24.6 °F 74% 29.88 in 10.0 mi NNW 11.5 mph 18.4 mph N/A   Overcast
9:15 AM 32.0 °F 22.5 °F 24.1 °F 73% 29.89 in 10.0 mi NNW 12.7 mph 19.6 mph N/A   Overcast
9:36 AM 32.0 °F 22.5 °F 24.6 °F 74% 29.89 in 10.0 mi NNW 12.7 mph 17.3 mph N/A   Mostly Cloudy
9:55 AM 32.4 °F 25.3 °F 25.0 °F 74% 29.90 in 10.0 mi NNW 8.1 mph - N/A   Overcast
10:16 AM 33.3 °F 23.7 °F 24.8 °F 71% 29.91 in 10.0 mi NNW 13.8 mph 20.7 mph N/A   Overcast
10:36 AM 33.6 °F 26.8 °F 25.2 °F 71% 29.91 in 10.0 mi NNW 8.1 mph - N/A   Overcast
10:55 AM 34.0 °F 27.2 °F 25.2 °F 70% 29.92 in 10.0 mi NNW 8.1 mph 16.1 mph N/A   Overcast
11:16 AM 34.2 °F 27.5 °F 24.8 °F 69% 29.93 in 10.0 mi NNW 8.1 mph - N/A   Overcast
11:36 AM 34.7 °F 27.5 °F 25.3 °F 69% 29.93 in 10.0 mi NNW 9.2 mph - N/A   Overcast
11:55 AM 35.4 °F 26.4 °F 25.2 °F 66% 29.93 in 10.0 mi North 13.8 mph 20.7 mph N/A   Overcast
12:16 PM 36.0 °F 29.6 °F 25.2 °F 65% 29.93 in 10.0 mi NNW 8.1 mph 20.7 mph N/A   Overcast
12:36 PM 36.7 °F 31.2 °F 25.7 °F 64% 29.93 in 10.0 mi NNW 6.9 mph 17.3 mph N/A   Overcast
12:56 PM 37.0 °F 29.3 °F 25.9 °F 64% 29.93 in 10.0 mi NNW 11.5 mph 18.4 mph N/A   Overcast
1:16 PM 37.2 °F 31.2 °F 25.9 °F 64% 29.93 in 10.0 mi NNW 8.1 mph - N/A   Overcast
1:35 PM 36.9 °F 29.6 °F 25.7 °F 64% 29.94 in 10.0 mi NW 10.4 mph 17.3 mph N/A   Overcast
1:56 PM 37.6 °F 31.0 °F 25.5 °F 62% 29.94 in 10.0 mi NNW 9.2 mph 16.1 mph N/A   Overcast
2:16 PM 37.6 °F 30.5 °F 25.7 °F 62% 29.94 in 10.0 mi NNW 10.4 mph 17.3 mph N/A   Overcast
2:35 PM 37.8 °F 33.3 °F 26.4 °F 64% 29.94 in 10.0 mi NNW 5.8 mph 17.3 mph N/A   Overcast
2:56 PM 37.8 °F 30.2 °F 26.8 °F 65% 29.95 in 10.0 mi NNW 11.5 mph 16.1 mph N/A   Overcast
3:16 PM 38.3 °F 31.4 °F 26.2 °F 62% 29.95 in 10.0 mi NNW 10.4 mph 19.6 mph N/A   Overcast
3:35 PM 38.3 °F 31.9 °F 26.8 °F 63% 29.95 in 10.0 mi NNW 9.2 mph - N/A   Overcast
3:56 PM 37.8 °F 30.7 °F 26.1 °F 63% 29.96 in 10.0 mi North 10.4 mph - N/A   Overcast
4:16 PM 38.3 °F 31.4 °F 26.8 °F 63% 29.97 in 10.0 mi NNW 10.4 mph 17.3 mph N/A   Overcast
4:35 PM 37.4 °F 32.1 °F 26.1 °F 64% 29.97 in 10.0 mi North 6.9 mph - N/A   Overcast
4:56 PM 37.4 °F 30.8 °F 26.8 °F 66% 29.98 in 10.0 mi NNW 9.2 mph 17.3 mph N/A   Overcast
5:16 PM 37.0 °F 29.3 °F 26.6 °F 66% 29.99 in 10.0 mi NNW 11.5 mph 19.6 mph N/A   Overcast
5:35 PM 36.9 °F 30.1 °F 26.4 °F 66% 29.99 in 10.0 mi North 9.2 mph - N/A   Overcast
5:56 PM 36.7 °F 30.5 °F 27.0 °F 68% 30.00 in 10.0 mi NNW 8.1 mph - N/A   Overcast
6:16 PM 36.5 °F 30.3 °F 27.0 °F 68% 30.00 in 10.0 mi NNW 8.1 mph 16.1 mph N/A   Overcast
6:36 PM 36.5 °F 29.7 °F 26.8 °F 68% 30.01 in 10.0 mi NNW 9.2 mph 20.7 mph N/A   Overcast
6:56 PM 36.1 °F 28.7 °F 26.6 °F 68% 30.02 in 10.0 mi NNW 10.4 mph - N/A   Overcast
7:15 PM 35.6 °F 28.0 °F 26.4 °F 69% 30.02 in 10.0 mi North 10.4 mph - N/A   Overcast
7:36 PM 35.6 °F 29.9 °F 26.8 °F 70% 30.03 in 10.0 mi NNW 6.9 mph - N/A   Overcast
7:56 PM 35.6 °F 29.9 °F 27.0 °F 71% 30.03 in 10.0 mi NNW 6.9 mph - N/A   Overcast
8:15 PM 35.1 °F 27.4 °F 26.1 °F 70% 30.04 in 10.0 mi NNW 10.4 mph - N/A   Overcast
8:36 PM 34.9 °F 28.3 °F 26.2 °F 71% 30.04 in 10.0 mi NNW 8.1 mph 19.6 mph N/A   Overcast
8:56 PM 34.9 °F 27.7 °F 26.2 °F 71% 30.05 in 10.0 mi North 9.2 mph - N/A   Overcast
9:15 PM 34.9 °F 28.3 °F 26.2 °F 71% 30.05 in 10.0 mi NNW 8.1 mph - N/A   Overcast
9:36 PM 34.7 °F 28.8 °F 26.1 °F 71% 30.06 in 10.0 mi NNW 6.9 mph 16.1 mph N/A   Overcast
9:55 PM 34.7 °F 27.5 °F 26.1 °F 71% 30.06 in 10.0 mi North 9.2 mph - N/A   Overcast
10:16 PM 34.2 °F 26.8 °F 26.4 °F 73% 30.07 in 10.0 mi NNW 9.2 mph - N/A   Overcast
10:36 PM 34.0 °F 27.2 °F 26.4 °F 74% 30.07 in 10.0 mi NNW 8.1 mph 16.1 mph N/A   Overcast
10:55 PM 34.0 °F 26.6 °F 25.9 °F 72% 30.08 in 10.0 mi North 9.2 mph - N/A   Overcast
11:35 PM 33.1 °F 26.1 °F 25.7 °F 74% 30.08 in 10.0 mi NNW 8.1 mph - N/A   Overcast
11:56 PM 32.9 °F 25.9 °F 25.7 °F 75% 30.09 in 10.0 mi NNW 8.1 mph - N/A   Overcast